sat.trackr.live / text

‹ back to catalog

STARLINK-32103

NORAD 59688 · 2024-086G

PAYLOAD ACTIVE UNKNOWN

§ Identity

Operator
Country
US
Launch date
2024-05-08
Launch site
AFETR
Launch vehicle
Mass (kg)
RCS (m²)

Purposes: comms

External: N2YO · Heavens-Above · Gunter

§ Orbital elements

Epoch: 2026-05-24T22:13:45.567840Z

Period
94.27 min
Inclination
43.0034°
Eccentricity
0.0000626
Mean motion
15.27572366 rev/d
Perigee alt
482.6 km
Apogee alt
483.5 km
Semi-major
6,861.2 km
B*
-3.1925e-5
RAAN
338.7900°
Arg perigee
254.5399°
Mean anomaly
105.5384°
Rev number
11,589

§ Raw data

STARLINK-321031 59688U 24086G   26144.92622185 -.00001140  00000+0 -31925-4 0  99992 59688  43.0034 338.7900 0000626 254.5399 105.5384 15.27572366115897

JSON: /api/v1/satellites/59688 · /tle

For live sub-satellite position, see the globe view (requires WebGL).

§ Visibility from observer

Set your observer location to see the next 7 days of passes ≥ 10°. The values pass through the URL so the page stays shareable.

No JS? Fill the form by hand. The geolocation button needs JavaScript.